Location: Ellerstadt
(49.4644°N, 8.2615°E)
Time: 00:02:11
(UTC+00:00)

Cosmos 1943 Rocket - Pass Details

Date: 03 March 2021
Orbit: 811 x 844 km, 71.0° (Epoch: 13 April)

Event Time Altitude Azimuth Distance (km) Brightness Sun altitude
Rises 20:42:39 0° 333° (NNW) 3,416 6.2 -33.4°
Reaches altitude 10° 20:45:17 10° 341° (NNW) 2,477 5.2 -33.7°
Enters shadow 20:48:16 28° 3° (N) 1,550 3.7 -34.1°
